Time,TemperatureF,DewpointF,PressureIn,WindDirection,WindDirectionDegrees,WindSpeedMPH,WindSpeedGustMPH,Humidity,HourlyPrecipIn,Conditions,Clouds,dailyrainin,SoftwareType,DateUTC
2013-01-16 00:03:00,29.0,26.4,29.97,North,355,1.0,7.0,90,0.00,,---,0.00,VWS V14.01,2013-01-16 06:03:00,
2013-01-16 00:08:00,29.0,26.4,29.97,North,5,2.0,12.0,90,0.00,,---,0.00,VWS V14.01,2013-01-16 06:08:00,
2013-01-16 00:13:00,29.1,26.5,29.97,NNE,22,3.0,12.0,90,0.00,,---,0.00,VWS V14.01,2013-01-16 06:13:00,
2013-01-16 00:18:00,29.1,26.5,29.97,NNW,335,1.0,12.0,90,0.00,,---,0.00,VWS V14.01,2013-01-16 06:18:00,
2013-01-16 00:23:00,29.2,26.6,29.97,NE,35,3.0,12.0,90,0.00,,---,0.00,VWS V14.01,2013-01-16 06:23:00,
2013-01-16 00:28:00,29.2,26.6,29.97,North,349,2.0,12.0,90,0.00,,---,0.00,VWS V14.01,2013-01-16 06:28:00,
2013-01-16 00:33:00,29.2,26.6,29.98,NNE,14,2.0,7.0,90,0.00,,---,0.00,VWS V14.01,2013-01-16 06:33:00,
2013-01-16 00:38:00,29.3,26.7,29.98,NNW,346,1.0,7.0,90,0.00,,---,0.00,VWS V14.01,2013-01-16 06:38:00,
2013-01-16 00:43:00,29.3,26.7,29.98,North,9,2.0,7.0,90,0.00,,---,0.00,VWS V14.01,2013-01-16 06:43:00,
2013-01-16 00:49:00,29.3,26.7,29.98,North,355,1.0,7.0,90,0.00,,---,0.00,VWS V14.01,2013-01-16 06:49:00,
2013-01-16 00:54:00,29.3,26.7,29.98,North,10,2.0,7.0,90,0.00,,---,0.00,VWS V14.01,2013-01-16 06:54:00,
2013-01-16 00:59:00,29.3,26.7,29.98,North,11,1.0,7.0,90,0.00,,---,0.00,VWS V14.01,2013-01-16 06:59:00,
2013-01-16 01:04:00,29.3,26.7,29.98,NW,321,0.0,3.0,90,0.00,,---,0.00,VWS V14.01,2013-01-16 07:04:00,
2013-01-16 01:09:00,29.3,26.7,29.98,NW,316,0.0,3.0,90,0.00,,---,0.00,VWS V14.01,2013-01-16 07:09:00,
2013-01-16 01:14:00,29.3,26.7,29.98,NNW,335,0.0,4.0,90,0.00,,---,0.00,VWS V14.01,2013-01-16 07:14:00,
2013-01-16 01:19:00,29.3,26.7,30.00,NNW,335,0.0,4.0,90,0.00,,---,0.00,VWS V14.01,2013-01-16 07:19:00,
2013-01-16 01:24:00,29.4,26.8,30.00,NNW,334,0.0,4.0,90,0.00,,---,0.00,VWS V14.01,2013-01-16 07:24:00,
2013-01-16 01:29:00,29.4,26.8,30.00,NNW,335,1.0,4.0,90,0.00,,---,0.00,VWS V14.01,2013-01-16 07:29:00,
2013-01-16 01:34:00,29.4,26.8,30.00,NNW,338,3.0,3.0,90,0.00,,---,0.00,VWS V14.01,2013-01-16 07:34:00,
2013-01-16 01:39:00,29.4,26.8,30.00,NNW,338,1.0,3.0,90,0.00,,---,0.00,VWS V14.01,2013-01-16 07:39:00,
2013-01-16 01:44:00,29.4,26.8,30.00,WNW,302,1.0,4.0,90,0.00,,---,0.00,VWS V14.01,2013-01-16 07:44:00,
2013-01-16 01:49:00,29.3,26.7,30.00,NW,313,1.0,4.0,90,0.00,,---,0.00,VWS V14.01,2013-01-16 07:49:00,
2013-01-16 01:54:00,29.3,26.7,30.00,NNW,348,0.0,4.0,90,0.00,,---,0.00,VWS V14.01,2013-01-16 07:54:00,
2013-01-16 01:59:00,29.3,26.7,30.00,North,355,4.0,5.0,90,0.00,,---,0.00,VWS V14.01,2013-01-16 07:59:00,
2013-01-16 02:04:00,29.3,26.7,30.00,NNW,331,2.0,2.0,90,0.00,,---,0.00,VWS V14.01,2013-01-16 08:04:00,
2013-01-16 02:09:00,29.2,26.6,30.00,NW,309,4.0,4.0,90,0.00,,---,0.00,VWS V14.01,2013-01-16 08:09:00,
2013-01-16 02:14:00,29.2,26.6,30.00,NW,307,3.0,4.0,90,0.00,,---,0.00,VWS V14.01,2013-01-16 08:14:00,
2013-01-16 02:19:00,29.2,26.6,29.98,WNW,299,4.0,4.0,90,0.00,,---,0.00,VWS V14.01,2013-01-16 08:19:00,
2013-01-16 02:24:00,29.1,26.5,29.98,North,350,0.0,5.0,90,0.00,,---,0.00,VWS V14.01,2013-01-16 08:24:00,
2013-01-16 02:29:00,29.2,26.6,29.98,North,351,0.0,5.0,90,0.00,,---,0.00,VWS V14.01,2013-01-16 08:29:00,
2013-01-16 02:34:00,29.1,26.5,29.99,NNW,329,0.0,2.0,90,0.00,,---,0.00,VWS V14.01,2013-01-16 08:34:00,
2013-01-16 02:39:00,29.1,26.5,29.99,NNW,329,0.0,2.0,90,0.00,,---,0.00,VWS V14.01,2013-01-16 08:39:00,
2013-01-16 02:44:00,29.2,26.6,29.99,NNW,329,0.0,2.0,90,0.00,,---,0.00,VWS V14.01,2013-01-16 08:44:00,
2013-01-16 02:49:00,29.2,26.6,29.99,NNW,329,0.0,2.0,90,0.00,,---,0.00,VWS V14.01,2013-01-16 08:49:00,
2013-01-16 02:54:00,29.2,26.6,29.99,NNW,329,0.0,3.0,90,0.00,,---,0.00,VWS V14.01,2013-01-16 08:54:00,
2013-01-16 02:59:00,29.1,26.5,29.99,NNW,329,0.0,3.0,90,0.00,,---,0.00,VWS V14.01,2013-01-16 08:59:00,
2013-01-16 03:04:00,29.2,26.4,29.99,NNW,329,0.0,2.0,89,0.00,,---,0.00,VWS V14.01,2013-01-16 09:04:00,
2013-01-16 03:09:00,29.2,26.6,29.99,NW,325,0.0,3.0,90,0.00,,---,0.00,VWS V14.01,2013-01-16 09:09:00,
2013-01-16 03:14:00,29.2,26.6,29.99,NNW,343,0.0,3.0,90,0.00,,---,0.00,VWS V14.01,2013-01-16 09:14:00,
2013-01-16 03:19:00,29.2,26.6,29.98,NNW,342,0.0,3.0,90,0.00,,---,0.00,VWS V14.01,2013-01-16 09:19:00,
2013-01-16 03:24:00,29.2,26.6,29.98,NNW,342,0.0,3.0,90,0.00,,---,0.00,VWS V14.01,2013-01-16 09:24:00,
2013-01-16 03:29:00,29.2,26.6,29.98,NNW,342,0.0,3.0,90,0.00,,---,0.00,VWS V14.01,2013-01-16 09:29:00,
2013-01-16 03:34:00,29.2,26.6,29.97,NNW,343,0.0,2.0,90,0.00,,---,0.00,VWS V14.01,2013-01-16 09:34:00,
2013-01-16 03:39:00,29.2,26.6,29.97,NNW,343,0.0,2.0,90,0.00,,---,0.00,VWS V14.01,2013-01-16 09:39:00,
2013-01-16 03:44:00,29.2,26.6,29.97,NNW,343,0.0,2.0,90,0.00,,---,0.00,VWS V14.01,2013-01-16 09:44:00,
2013-01-16 03:49:00,29.2,26.6,29.97,NNW,343,0.0,3.0,90,0.00,,---,0.00,VWS V14.01,2013-01-16 09:49:00,
2013-01-16 03:54:00,29.2,26.6,29.97,NNW,343,0.0,3.0,90,0.00,,---,0.00,VWS V14.01,2013-01-16 09:54:00,
2013-01-16 03:59:00,29.2,26.6,29.97,NNW,342,0.0,3.0,90,0.00,,---,0.00,VWS V14.01,2013-01-16 09:59:00,
2013-01-16 04:04:00,29.2,26.6,29.96,NNW,333,2.0,2.0,90,0.00,,---,0.00,VWS V14.01,2013-01-16 10:04:00,
2013-01-16 04:09:00,29.3,26.7,29.96,NW,319,2.0,3.0,90,0.00,,---,0.00,VWS V14.01,2013-01-16 10:09:00,
2013-01-16 04:14:00,29.3,26.7,29.96,NW,319,0.0,3.0,90,0.00,,---,0.00,VWS V14.01,2013-01-16 10:14:00,
2013-01-16 04:19:00,29.3,26.7,29.97,NW,319,0.0,3.0,90,0.00,,---,0.00,VWS V14.01,2013-01-16 10:19:00,
2013-01-16 04:24:00,29.2,26.6,29.97,NW,319,0.0,3.0,90,0.00,,---,0.00,VWS V14.01,2013-01-16 10:24:00,
2013-01-16 04:29:00,29.3,26.7,29.97,NW,319,0.0,3.0,90,0.00,,---,0.00,VWS V14.01,2013-01-16 10:29:00,
2013-01-16 04:34:00,29.3,26.7,29.96,NW,319,1.0,2.0,90,0.00,,---,0.00,VWS V14.01,2013-01-16 10:34:00,
2013-01-16 04:39:00,29.4,26.8,29.96,NW,313,1.0,4.0,90,0.00,,---,0.00,VWS V14.01,2013-01-16 10:39:00,
2013-01-16 04:44:00,29.4,26.8,29.96,NNW,327,2.0,4.0,90,0.00,,---,0.00,VWS V14.01,2013-01-16 10:44:00,
2013-01-16 04:49:00,29.4,26.8,29.94,NNW,329,0.0,4.0,90,0.00,,---,0.00,VWS V14.01,2013-01-16 10:49:00,
2013-01-16 04:54:00,29.5,26.9,29.94,NNW,338,2.0,4.0,90,0.00,,---,0.00,VWS V14.01,2013-01-16 10:54:00,
2013-01-16 04:59:00,29.5,26.9,29.94,NW,321,2.0,5.0,90,0.00,,---,0.00,VWS V14.01,2013-01-16 10:59:00,
2013-01-16 05:04:00,29.5,26.9,29.95,NW,312,2.0,4.0,90,0.00,,---,0.00,VWS V14.01,2013-01-16 11:04:00,
2013-01-16 05:09:00,29.4,26.8,29.95,NW,305,1.0,5.0,90,0.00,,---,0.00,VWS V14.01,2013-01-16 11:09:00,
2013-01-16 05:14:00,29.5,26.9,29.95,WNW,289,0.0,5.0,90,0.00,,---,0.00,VWS V14.01,2013-01-16 11:14:00,
2013-01-16 05:19:00,29.6,27.0,29.97,WNW,289,0.0,5.0,90,0.00,,---,0.00,VWS V14.01,2013-01-16 11:19:00,
2013-01-16 05:24:00,29.6,27.0,29.97,NW,306,2.0,5.0,90,0.00,,---,0.00,VWS V14.01,2013-01-16 11:24:00,
2013-01-16 05:29:00,29.6,26.8,29.97,WNW,297,1.0,5.0,89,0.00,,---,0.00,VWS V14.01,2013-01-16 11:29:00,
2013-01-16 05:34:00,29.6,26.8,29.99,WNW,298,2.0,4.0,89,0.00,,---,0.00,VWS V14.01,2013-01-16 11:34:00,
2013-01-16 05:39:00,29.6,26.8,29.99,WNW,298,1.0,4.0,89,0.00,,---,0.00,VWS V14.01,2013-01-16 11:39:00,
2013-01-16 05:44:00,29.6,26.8,29.99,WNW,298,2.0,4.0,89,0.00,,---,0.00,VWS V14.01,2013-01-16 11:44:00,
2013-01-16 05:49:00,29.6,26.8,29.98,NW,304,3.0,4.0,89,0.00,,---,0.00,VWS V14.01,2013-01-16 11:49:00,
2013-01-16 05:54:00,29.6,26.8,29.98,NNW,335,0.0,4.0,89,0.00,,---,0.00,VWS V14.01,2013-01-16 11:54:00,
2013-01-16 05:59:00,29.6,26.8,29.98,NW,307,7.0,7.0,89,0.00,,---,0.00,VWS V14.01,2013-01-16 11:59:00,
2013-01-16 06:04:00,29.6,26.8,29.99,WNW,301,2.0,3.0,89,0.00,,---,0.00,VWS V14.01,2013-01-16 12:04:00,
2013-01-16 06:09:00,29.7,26.9,29.99,WNW,288,2.0,4.0,89,0.00,,---,0.00,VWS V14.01,2013-01-16 12:09:00,
2013-01-16 06:14:00,29.7,26.9,29.99,WNW,299,1.0,4.0,89,0.00,,---,0.00,VWS V14.01,2013-01-16 12:14:00,
2013-01-16 06:19:00,29.7,26.9,30.01,West,281,0.0,4.0,89,0.00,,---,0.00,VWS V14.01,2013-01-16 12:19:00,
2013-01-16 06:24:00,29.7,26.9,30.01,West,279,1.0,4.0,89,0.00,,---,0.00,VWS V14.01,2013-01-16 12:24:00,
2013-01-16 06:29:00,29.8,27.0,30.01,West,281,2.0,4.0,89,0.00,,---,0.00,VWS V14.01,2013-01-16 12:29:00,
2013-01-16 06:34:00,29.8,27.0,30.02,West,267,1.0,3.0,89,0.00,,---,0.00,VWS V14.01,2013-01-16 12:34:00,
2013-01-16 06:39:00,29.9,27.1,30.02,NW,306,2.0,3.0,89,0.00,,---,0.00,VWS V14.01,2013-01-16 12:39:00,
2013-01-16 06:44:00,29.9,27.1,30.02,WNW,298,3.0,5.0,89,0.00,,---,0.00,VWS V14.01,2013-01-16 12:44:00,
2013-01-16 06:49:00,29.8,27.0,30.01,West,277,3.0,5.0,89,0.00,,---,0.00,VWS V14.01,2013-01-16 12:49:00,
2013-01-16 06:54:00,29.8,27.0,30.01,WNW,298,4.0,5.0,89,0.00,,---,0.00,VWS V14.01,2013-01-16 12:54:00,
2013-01-16 06:59:00,29.8,26.7,30.01,WNW,290,2.0,6.0,88,0.00,,---,0.00,VWS V14.01,2013-01-16 12:59:00,
2013-01-16 07:04:00,29.8,26.7,30.00,West,277,0.0,3.0,88,0.00,,---,0.00,VWS V14.01,2013-01-16 13:04:00,
2013-01-16 07:09:00,29.9,26.8,30.00,NNW,342,0.0,6.0,88,0.00,,---,0.00,VWS V14.01,2013-01-16 13:09:00,
2013-01-16 07:14:00,30.0,26.9,30.00,NW,322,3.0,6.0,88,0.00,,---,0.00,VWS V14.01,2013-01-16 13:14:00,
2013-01-16 07:19:00,30.0,26.9,30.02,NNW,329,0.0,6.0,88,0.00,,---,0.00,VWS V14.01,2013-01-16 13:19:00,
2013-01-16 07:24:00,30.1,27.0,30.02,NNW,329,0.0,6.0,88,0.00,,---,0.00,VWS V14.01,2013-01-16 13:24:00,
2013-01-16 07:29:00,30.1,27.0,30.02,NNW,330,0.0,6.0,88,0.00,,---,0.00,VWS V14.01,2013-01-16 13:29:00,
2013-01-16 07:34:00,30.1,27.0,30.03,NNW,330,0.0,0.0,88,0.00,,---,0.00,VWS V14.01,2013-01-16 13:34:00,
2013-01-16 07:39:00,30.2,27.1,30.03,NNW,331,0.0,1.0,88,0.00,,---,0.00,VWS V14.01,2013-01-16 13:39:00,
2013-01-16 07:44:00,30.3,27.2,30.03,NW,318,0.0,3.0,88,0.00,,---,0.00,VWS V14.01,2013-01-16 13:44:00,
2013-01-16 07:49:00,30.3,27.5,30.02,NW,317,0.0,3.0,89,0.00,,---,0.00,VWS V14.01,2013-01-16 13:49:00,
2013-01-16 07:54:00,30.3,27.2,30.02,NW,318,0.0,3.0,88,0.00,,---,0.00,VWS V14.01,2013-01-16 13:54:00,
2013-01-16 07:59:00,30.3,27.5,30.02,NW,319,0.0,3.0,89,0.00,,---,0.00,VWS V14.01,2013-01-16 13:59:00,
2013-01-16 08:04:00,30.3,27.2,30.03,NW,318,0.0,0.0,88,0.00,,---,0.00,VWS V14.01,2013-01-16 14:04:00,
2013-01-16 08:09:00,30.3,27.2,30.03,NW,318,0.0,1.0,88,0.00,,---,0.00,VWS V14.01,2013-01-16 14:09:00,
2013-01-16 08:14:00,30.4,27.3,30.03,NW,319,0.0,1.0,88,0.00,,---,0.00,VWS V14.01,2013-01-16 14:14:00,
2013-01-16 08:19:00,30.5,27.4,30.04,NW,319,0.0,2.0,88,0.00,,---,0.00,VWS V14.01,2013-01-16 14:19:00,
2013-01-16 08:24:00,30.4,27.3,30.04,NW,319,0.0,3.0,88,0.00,,---,0.00,VWS V14.01,2013-01-16 14:24:00,
2013-01-16 08:29:00,30.5,27.4,30.04,NW,320,0.0,3.0,88,0.00,,---,0.00,VWS V14.01,2013-01-16 14:29:00,
2013-01-16 08:34:00,30.5,27.4,30.05,NW,321,0.0,0.0,88,0.00,,---,0.00,VWS V14.01,2013-01-16 14:34:00,
2013-01-16 08:39:00,30.6,27.5,30.05,NW,321,0.0,0.0,88,0.00,,---,0.00,VWS V14.01,2013-01-16 14:39:00,
2013-01-16 08:44:00,30.7,27.6,30.05,NW,320,0.0,0.0,88,0.00,,---,0.00,VWS V14.01,2013-01-16 14:44:00,
2013-01-16 08:49:00,30.7,27.6,30.02,NW,320,0.0,1.0,88,0.00,,---,0.00,VWS V14.01,2013-01-16 14:49:00,
2013-01-16 08:54:00,30.6,27.5,30.02,North,11,0.0,3.0,88,0.00,,---,0.00,VWS V14.01,2013-01-16 14:54:00,
2013-01-16 08:59:00,30.6,27.2,30.02,NNW,340,0.0,3.0,87,0.00,,---,0.00,VWS V14.01,2013-01-16 14:59:00,
2013-01-16 09:04:00,30.6,27.2,30.03,NNW,340,0.0,0.0,87,0.00,,---,0.00,VWS V14.01,2013-01-16 15:04:00,
2013-01-16 09:09:00,30.7,27.3,30.03,WNW,303,1.0,3.0,87,0.00,,---,0.00,VWS V14.01,2013-01-16 15:09:00,
2013-01-16 09:14:00,30.7,27.3,30.03,WNW,302,0.0,3.0,87,0.00,,---,0.00,VWS V14.01,2013-01-16 15:14:00,
2013-01-16 09:19:00,30.7,27.3,30.03,WNW,302,0.0,3.0,87,0.00,,---,0.00,VWS V14.01,2013-01-16 15:19:00,
2013-01-16 09:24:00,30.7,27.3,30.03,WNW,302,0.0,3.0,87,0.00,,---,0.00,VWS V14.01,2013-01-16 15:24:00,
2013-01-16 09:29:00,30.8,27.1,30.03,WNW,303,0.0,3.0,86,0.00,,---,0.00,VWS V14.01,2013-01-16 15:29:00,
2013-01-16 09:34:00,30.9,27.2,30.05,WNW,302,0.0,1.0,86,0.00,,---,0.00,VWS V14.01,2013-01-16 15:34:00,
2013-01-16 09:39:00,30.9,27.2,30.05,WNW,301,0.0,3.0,86,0.00,,---,0.00,VWS V14.01,2013-01-16 15:39:00,
2013-01-16 09:44:00,31.0,27.3,30.05,WNW,303,2.0,3.0,86,0.00,,---,0.00,VWS V14.01,2013-01-16 15:44:00,
2013-01-16 09:49:00,31.0,27.0,30.05,WNW,303,0.0,3.0,85,0.00,,---,0.00,VWS V14.01,2013-01-16 15:49:00,
2013-01-16 09:54:00,31.1,27.1,30.05,WNW,303,0.0,3.0,85,0.00,,---,0.00,VWS V14.01,2013-01-16 15:54:00,
2013-01-16 09:59:00,31.1,27.1,30.05,WNW,288,0.0,4.0,85,0.00,,---,0.00,VWS V14.01,2013-01-16 15:59:00,
2013-01-16 10:04:00,31.2,27.2,30.04,WNW,288,3.0,3.0,85,0.00,,---,0.00,VWS V14.01,2013-01-16 16:04:00,
2013-01-16 10:09:00,31.2,27.2,30.04,North,11,2.0,3.0,85,0.00,,---,0.00,VWS V14.01,2013-01-16 16:09:00,
2013-01-16 10:14:00,31.2,27.2,30.04,North,11,1.0,3.0,85,0.00,,---,0.00,VWS V14.01,2013-01-16 16:14:00,
2013-01-16 10:19:00,31.2,26.9,30.03,NNW,331,1.0,5.0,84,0.00,,---,0.00,VWS V14.01,2013-01-16 16:19:00,
2013-01-16 10:24:00,31.1,26.5,30.03,WNW,294,0.0,5.0,83,0.00,,---,0.00,VWS V14.01,2013-01-16 16:24:00,
2013-01-16 10:29:00,31.2,26.9,30.03,NNW,338,1.0,5.0,84,0.00,,---,0.00,VWS V14.01,2013-01-16 16:29:00,
2013-01-16 10:34:00,31.3,27.0,30.02,NW,321,1.0,4.0,84,0.00,,---,0.00,VWS V14.01,2013-01-16 16:34:00,
2013-01-16 10:39:00,31.2,26.6,30.02,NW,305,0.0,4.0,83,0.00,,---,0.00,VWS V14.01,2013-01-16 16:39:00,
2013-01-16 10:44:00,31.3,26.8,30.02,WNW,296,0.0,4.0,83,0.00,,---,0.00,VWS V14.01,2013-01-16 16:44:00,
2013-01-16 10:49:00,31.3,26.8,30.02,WNW,297,1.0,4.0,83,0.00,,---,0.00,VWS V14.01,2013-01-16 16:49:00,
2013-01-16 10:54:00,31.4,26.8,30.02,WNW,297,0.0,4.0,83,0.00,,---,0.00,VWS V14.01,2013-01-16 16:54:00,
2013-01-16 10:59:00,31.5,26.9,30.02,WNW,296,0.0,4.0,83,0.00,,---,0.00,VWS V14.01,2013-01-16 16:59:00,
2013-01-16 11:04:00,31.5,27.2,30.02,WNW,298,0.0,0.0,84,0.00,,---,0.00,VWS V14.01,2013-01-16 17:04:00,
2013-01-16 11:09:00,31.6,27.3,30.02,WNW,294,1.0,3.0,84,0.00,,---,0.00,VWS V14.01,2013-01-16 17:09:00,
2013-01-16 11:14:00,31.5,27.2,30.02,WNW,293,0.0,3.0,84,0.00,,---,0.00,VWS V14.01,2013-01-16 17:14:00,
2013-01-16 11:19:00,31.5,27.2,30.02,WNW,294,1.0,3.0,84,0.00,,---,0.00,VWS V14.01,2013-01-16 17:19:00,
2013-01-16 11:24:00,31.5,27.2,30.02,WNW,293,0.0,3.0,84,0.00,,---,0.00,VWS V14.01,2013-01-16 17:24:00,
2013-01-16 11:29:00,31.5,27.2,30.02,WNW,294,0.0,3.0,84,0.00,,---,0.00,VWS V14.01,2013-01-16 17:29:00,
2013-01-16 11:34:00,31.5,27.2,30.01,WNW,293,0.0,1.0,84,0.00,,---,0.00,VWS V14.01,2013-01-16 17:34:00,
2013-01-16 11:39:00,31.6,27.6,30.01,WNW,294,2.0,2.0,85,0.00,,---,0.00,VWS V14.01,2013-01-16 17:39:00,
2013-01-16 11:44:00,31.6,27.3,30.01,WNW,290,0.0,3.0,84,0.00,,---,0.00,VWS V14.01,2013-01-16 17:44:00,
2013-01-16 11:49:00,31.6,27.3,30.00,WNW,290,0.0,3.0,84,0.00,,---,0.00,VWS V14.01,2013-01-16 17:49:00,
2013-01-16 11:54:00,31.6,27.3,30.00,WNW,291,0.0,3.0,84,0.00,,---,0.00,VWS V14.01,2013-01-16 17:54:00,
2013-01-16 11:59:00,31.5,26.9,30.00,WNW,290,0.0,4.0,83,0.00,,---,0.00,VWS V14.01,2013-01-16 17:59:00,
2013-01-16 12:04:00,31.5,27.2,29.98,WNW,291,0.0,0.0,84,0.00,,---,0.00,VWS V14.01,2013-01-16 18:04:00,
2013-01-16 12:09:00,31.5,27.2,29.98,WNW,286,0.0,3.0,84,0.00,,---,0.00,VWS V14.01,2013-01-16 18:09:00,
2013-01-16 12:14:00,31.5,27.2,29.98,WNW,286,2.0,3.0,84,0.00,,---,0.00,VWS V14.01,2013-01-16 18:14:00,
2013-01-16 12:19:00,31.6,27.3,29.99,WNW,286,2.0,3.0,84,0.00,,---,0.00,VWS V14.01,2013-01-16 18:19:00,
2013-01-16 12:24:00,31.6,27.0,29.99,WNW,283,0.0,3.0,83,0.00,,---,0.00,VWS V14.01,2013-01-16 18:24:00,
2013-01-16 12:29:00,31.6,27.0,29.99,West,281,3.0,3.0,83,0.00,,---,0.00,VWS V14.01,2013-01-16 18:29:00,
2013-01-16 12:34:00,31.5,26.9,29.99,WNW,297,0.0,2.0,83,0.00,,---,0.00,VWS V14.01,2013-01-16 18:34:00,
2013-01-16 12:39:00,31.6,27.0,29.99,WNW,296,0.0,3.0,83,0.00,,---,0.00,VWS V14.01,2013-01-16 18:39:00,
2013-01-16 12:44:00,31.6,27.0,29.99,WNW,296,0.0,3.0,83,0.00,,---,0.00,VWS V14.01,2013-01-16 18:44:00,
2013-01-16 12:49:00,31.6,27.0,29.99,WNW,297,0.0,3.0,83,0.00,,---,0.00,VWS V14.01,2013-01-16 18:49:00,
2013-01-16 12:54:00,31.7,27.1,29.99,WNW,296,0.0,3.0,83,0.00,,---,0.00,VWS V14.01,2013-01-16 18:54:00,
2013-01-16 12:59:00,31.7,27.1,29.99,WNW,296,0.0,3.0,83,0.00,,---,0.00,VWS V14.01,2013-01-16 18:59:00,
2013-01-16 13:04:00,31.8,27.2,30.00,WNW,296,2.0,2.0,83,0.00,,---,0.00,VWS V14.01,2013-01-16 19:04:00,
2013-01-16 13:09:00,31.9,27.3,30.00,WNW,295,2.0,2.0,83,0.00,,---,0.00,VWS V14.01,2013-01-16 19:09:00,
2013-01-16 13:14:00,31.8,27.2,30.00,WNW,296,1.0,2.0,83,0.00,,---,0.00,VWS V14.01,2013-01-16 19:14:00,
2013-01-16 13:19:00,31.9,27.3,30.00,WNW,297,0.0,2.0,83,0.00,,---,0.00,VWS V14.01,2013-01-16 19:19:00,
2013-01-16 13:24:00,31.9,27.3,30.00,WNW,297,0.0,2.0,83,0.00,,---,0.00,VWS V14.01,2013-01-16 19:24:00,
2013-01-16 13:29:00,31.8,27.2,30.00,WNW,296,1.0,2.0,83,0.00,,---,0.00,VWS V14.01,2013-01-16 19:29:00,
2013-01-16 13:34:00,31.7,27.1,30.00,WNW,297,0.0,0.0,83,0.00,,---,0.00,VWS V14.01,2013-01-16 19:34:00,
2013-01-16 13:39:00,31.7,26.8,30.00,WNW,297,1.0,1.0,82,0.00,,---,0.00,VWS V14.01,2013-01-16 19:39:00,
2013-01-16 13:44:00,31.7,26.8,30.00,WNW,296,0.0,1.0,82,0.00,,---,0.00,VWS V14.01,2013-01-16 19:44:00,
2013-01-16 13:49:00,31.6,26.8,30.00,WNW,297,0.0,1.0,82,0.00,,---,0.00,VWS V14.01,2013-01-16 19:49:00,
2013-01-16 13:54:00,31.7,27.1,30.00,WNW,297,0.0,1.0,83,0.00,,---,0.00,VWS V14.01,2013-01-16 19:54:00,
2013-01-16 13:59:00,31.8,27.2,30.00,WNW,296,0.0,1.0,83,0.00,,---,0.00,VWS V14.01,2013-01-16 19:59:00,
2013-01-16 14:04:00,31.9,27.3,30.00,WNW,296,0.0,2.0,83,0.00,,---,0.00,VWS V14.01,2013-01-16 20:04:00,
2013-01-16 14:09:00,31.7,26.8,30.00,WNW,296,0.0,2.0,82,0.00,,---,0.00,VWS V14.01,2013-01-16 20:09:00,
2013-01-16 14:14:00,31.7,26.8,30.00,WNW,296,0.0,2.0,82,0.00,,---,0.00,VWS V14.01,2013-01-16 20:14:00,
2013-01-16 14:19:00,31.7,26.8,30.00,WNW,294,0.0,2.0,82,0.00,,---,0.00,VWS V14.01,2013-01-16 20:19:00,
2013-01-16 14:24:00,31.7,26.8,30.00,WNW,295,0.0,2.0,82,0.00,,---,0.00,VWS V14.01,2013-01-16 20:24:00,
2013-01-16 14:29:00,31.7,26.8,30.00,WNW,295,0.0,2.0,82,0.00,,---,0.00,VWS V14.01,2013-01-16 20:29:00,
2013-01-16 14:34:00,31.8,26.9,30.00,WNW,294,0.0,0.0,82,0.00,,---,0.00,VWS V14.01,2013-01-16 20:34:00,
2013-01-16 14:39:00,31.8,26.9,30.00,WNW,295,0.0,1.0,82,0.00,,---,0.00,VWS V14.01,2013-01-16 20:39:00,
2013-01-16 14:44:00,31.8,27.2,30.00,WNW,296,0.0,2.0,83,0.00,,---,0.00,VWS V14.01,2013-01-16 20:44:00,
2013-01-16 14:49:00,31.9,27.3,30.00,WNW,295,0.0,2.0,83,0.00,,---,0.00,VWS V14.01,2013-01-16 20:49:00,
2013-01-16 14:54:00,31.8,27.2,30.00,North,360,2.0,2.0,83,0.00,,---,0.00,VWS V14.01,2013-01-16 20:54:00,
2013-01-16 14:59:00,31.8,27.2,30.00,WSW,258,0.0,3.0,83,0.00,,---,0.00,VWS V14.01,2013-01-16 20:59:00,
2013-01-16 15:04:00,31.9,27.3,30.00,WSW,258,0.0,2.0,83,0.00,,---,0.00,VWS V14.01,2013-01-16 21:04:00,
2013-01-16 15:09:00,31.9,27.3,30.00,West,259,0.0,2.0,83,0.00,,---,0.00,VWS V14.01,2013-01-16 21:09:00,
2013-01-16 15:14:00,31.9,27.6,30.00,WSW,258,0.0,2.0,84,0.00,,---,0.00,VWS V14.01,2013-01-16 21:14:00,
2013-01-16 15:19:00,31.9,27.6,29.99,WSW,257,2.0,2.0,84,0.00,,---,0.00,VWS V14.01,2013-01-16 21:19:00,
2013-01-16 15:24:00,31.9,27.6,29.99,WSW,258,0.0,2.0,84,0.00,,---,0.00,VWS V14.01,2013-01-16 21:24:00,
2013-01-16 15:29:00,31.9,27.9,29.99,WSW,257,0.0,2.0,85,0.00,,---,0.00,VWS V14.01,2013-01-16 21:29:00,
2013-01-16 15:34:00,32.0,28.0,29.99,WSW,257,0.0,2.0,85,0.00,,---,0.00,VWS V14.01,2013-01-16 21:34:00,
2013-01-16 15:39:00,32.0,28.0,29.99,West,259,0.0,2.0,85,0.00,,---,0.00,VWS V14.01,2013-01-16 21:39:00,
2013-01-16 15:44:00,31.9,27.9,29.99,WSW,257,0.0,2.0,85,0.00,,---,0.00,VWS V14.01,2013-01-16 21:44:00,
2013-01-16 15:49:00,31.9,27.9,29.99,West,259,0.0,2.0,85,0.00,,---,0.00,VWS V14.01,2013-01-16 21:49:00,
2013-01-16 15:54:00,31.8,27.8,29.99,WSW,258,0.0,2.0,85,0.00,,---,0.00,VWS V14.01,2013-01-16 21:54:00,
2013-01-16 15:59:00,31.7,27.7,29.99,West,259,0.0,2.0,85,0.00,,---,0.00,VWS V14.01,2013-01-16 21:59:00,
2013-01-16 16:04:00,31.7,27.7,29.99,WSW,258,0.0,0.0,85,0.00,,---,0.00,VWS V14.01,2013-01-16 22:04:00,
2013-01-16 16:09:00,31.7,27.7,29.99,WSW,258,0.0,0.0,85,0.00,,---,0.00,VWS V14.01,2013-01-16 22:09:00,
2013-01-16 16:14:00,31.7,28.0,29.99,WSW,258,0.0,1.0,86,0.00,,---,0.00,VWS V14.01,2013-01-16 22:14:00,
2013-01-16 16:19:00,31.7,28.0,30.01,South,171,0.0,3.0,86,0.00,,---,0.00,VWS V14.01,2013-01-16 22:19:00,
2013-01-16 16:24:00,31.7,28.0,30.01,South,172,0.0,3.0,86,0.00,,---,0.00,VWS V14.01,2013-01-16 22:24:00,
2013-01-16 16:29:00,31.6,29.5,30.01,South,173,0.0,3.0,92,0.00,,---,0.00,VWS V14.01,2013-01-16 22:29:00,
2013-01-16 16:34:00,31.6,27.9,30.00,South,172,0.0,0.0,86,0.00,,---,0.00,VWS V14.01,2013-01-16 22:34:00,
2013-01-16 16:39:00,31.6,27.9,30.00,South,173,0.0,0.0,86,0.00,,---,0.00,VWS V14.01,2013-01-16 22:39:00,
2013-01-16 16:44:00,31.5,27.8,30.00,South,172,0.0,0.0,86,0.00,,---,0.00,VWS V14.01,2013-01-16 22:44:00,
2013-01-16 16:49:00,31.5,27.8,30.01,South,172,0.0,0.0,86,0.00,,---,0.00,VWS V14.01,2013-01-16 22:49:00,
2013-01-16 16:54:00,31.5,27.8,30.01,South,171,0.0,1.0,86,0.00,,---,0.00,VWS V14.01,2013-01-16 22:54:00,
2013-01-16 16:59:00,31.5,28.1,30.01,South,172,0.0,1.0,87,0.00,,---,0.00,VWS V14.01,2013-01-16 22:59:00,
2013-01-16 17:04:00,31.5,28.1,30.01,South,172,0.0,0.0,87,0.00,,---,0.00,VWS V14.01,2013-01-16 23:04:00,
2013-01-16 17:09:00,31.5,28.1,30.01,South,172,0.0,0.0,87,0.00,,---,0.00,VWS V14.01,2013-01-16 23:09:00,
2013-01-16 17:14:00,31.5,28.1,30.01,South,172,0.0,0.0,87,0.00,,---,0.00,VWS V14.01,2013-01-16 23:14:00,
2013-01-16 17:19:00,31.4,28.0,30.00,South,172,0.0,0.0,87,0.00,,---,0.00,VWS V14.01,2013-01-16 23:19:00,
2013-01-16 17:24:00,31.4,28.0,30.00,South,172,0.0,1.0,87,0.00,,---,0.00,VWS V14.01,2013-01-16 23:24:00,
2013-01-16 17:29:00,31.4,28.0,30.00,South,172,0.0,1.0,87,0.00,,---,0.00,VWS V14.01,2013-01-16 23:29:00,
2013-01-16 17:34:00,31.4,28.3,30.01,South,172,0.0,0.0,88,0.00,,---,0.00,VWS V14.01,2013-01-16 23:34:00,
2013-01-16 17:39:00,31.3,27.9,30.01,South,172,0.0,0.0,87,0.00,,---,0.00,VWS V14.01,2013-01-16 23:39:00,
2013-01-16 17:44:00,31.2,28.1,30.01,South,172,0.0,1.0,88,0.00,,---,0.00,VWS V14.01,2013-01-16 23:44:00,
2013-01-16 17:49:00,31.1,28.0,30.02,South,172,0.0,1.0,88,0.00,,---,0.00,VWS V14.01,2013-01-16 23:49:00,
2013-01-16 17:54:00,31.1,28.0,30.02,South,172,0.0,1.0,88,0.00,,---,0.00,VWS V14.01,2013-01-16 23:54:00,
2013-01-16 17:59:00,31.0,27.9,30.02,South,172,0.0,1.0,88,0.00,,---,0.00,VWS V14.01,2013-01-16 23:59:00,
2013-01-16 18:04:00,31.0,27.9,30.02,South,172,0.0,0.0,88,0.00,,---,0.00,VWS V14.01,2013-01-17 00:04:00,
2013-01-16 18:09:00,31.0,27.9,30.02,South,172,0.0,0.0,88,0.00,,---,0.00,VWS V14.01,2013-01-17 00:09:00,
2013-01-16 18:14:00,31.0,27.9,30.02,South,172,0.0,0.0,88,0.00,,---,0.00,VWS V14.01,2013-01-17 00:14:00,
2013-01-16 18:19:00,30.9,27.8,30.02,South,172,0.0,0.0,88,0.00,,---,0.00,VWS V14.01,2013-01-17 00:19:00,
2013-01-16 18:24:00,30.9,28.0,30.02,South,172,0.0,0.0,89,0.00,,---,0.00,VWS V14.01,2013-01-17 00:24:00,
2013-01-16 18:29:00,30.9,28.0,30.02,South,172,0.0,0.0,89,0.00,,---,0.00,VWS V14.01,2013-01-17 00:29:00,
2013-01-16 18:34:00,30.9,28.0,30.02,South,172,0.0,1.0,89,0.00,,---,0.00,VWS V14.01,2013-01-17 00:34:00,
2013-01-16 18:39:00,30.8,28.0,30.02,South,172,0.0,1.0,89,0.00,,---,0.00,VWS V14.01,2013-01-17 00:39:00,
2013-01-16 18:44:00,30.8,28.0,30.02,South,172,0.0,1.0,89,0.00,,---,0.00,VWS V14.01,2013-01-17 00:44:00,
2013-01-16 18:49:00,30.8,28.0,30.03,South,172,0.0,1.0,89,0.00,,---,0.00,VWS V14.01,2013-01-17 00:49:00,
2013-01-16 18:54:00,30.8,28.0,30.03,South,172,0.0,1.0,89,0.00,,---,0.00,VWS V14.01,2013-01-17 00:54:00,
2013-01-16 18:59:00,30.8,28.0,30.03,South,172,0.0,1.0,89,0.00,,---,0.00,VWS V14.01,2013-01-17 00:59:00,
2013-01-16 19:04:00,30.7,27.9,30.03,South,172,0.0,0.0,89,0.00,,---,0.00,VWS V14.01,2013-01-17 01:04:00,
2013-01-16 19:09:00,30.7,28.1,30.03,South,172,0.0,1.0,90,0.00,,---,0.00,VWS V14.01,2013-01-17 01:09:00,
2013-01-16 19:14:00,30.7,28.1,30.03,South,172,0.0,1.0,90,0.00,,---,0.00,VWS V14.01,2013-01-17 01:14:00,
2013-01-16 19:19:00,30.7,28.1,30.03,South,172,0.0,1.0,90,0.00,,---,0.00,VWS V14.01,2013-01-17 01:19:00,
2013-01-16 19:24:00,30.6,28.0,30.03,South,172,0.0,1.0,90,0.00,,---,0.00,VWS V14.01,2013-01-17 01:24:00,
2013-01-16 19:29:00,30.6,28.0,30.03,South,172,0.0,1.0,90,0.00,,---,0.00,VWS V14.01,2013-01-17 01:29:00,
2013-01-16 19:34:00,30.6,28.0,30.04,South,172,0.0,0.0,90,0.00,,---,0.00,VWS V14.01,2013-01-17 01:34:00,
2013-01-16 19:39:00,30.6,28.0,30.04,South,172,0.0,0.0,90,0.00,,---,0.00,VWS V14.01,2013-01-17 01:39:00,
2013-01-16 19:44:00,30.6,28.0,30.04,South,172,0.0,0.0,90,0.00,,---,0.00,VWS V14.01,2013-01-17 01:44:00,
2013-01-16 19:49:00,30.6,28.0,30.05,South,172,0.0,0.0,90,0.00,,---,0.00,VWS V14.01,2013-01-17 01:49:00,
2013-01-16 19:54:00,30.6,28.0,30.05,South,172,0.0,0.0,90,0.00,,---,0.00,VWS V14.01,2013-01-17 01:54:00,
2013-01-16 19:59:00,30.6,28.0,30.05,South,172,0.0,0.0,90,0.00,,---,0.00,VWS V14.01,2013-01-17 01:59:00,
2013-01-16 20:04:00,30.5,27.9,30.04,South,172,0.0,0.0,90,0.00,,---,0.00,VWS V14.01,2013-01-17 02:04:00,
2013-01-16 20:09:00,30.5,27.9,30.04,South,172,0.0,0.0,90,0.00,,---,0.00,VWS V14.01,2013-01-17 02:09:00,
2013-01-16 20:14:00,30.4,27.8,30.04,South,172,0.0,0.0,90,0.00,,---,0.00,VWS V14.01,2013-01-17 02:14:00,
2013-01-16 20:19:00,30.5,27.9,30.04,South,172,0.0,0.0,90,0.00,,---,0.00,VWS V14.01,2013-01-17 02:19:00,
2013-01-16 20:24:00,30.5,27.9,30.04,South,172,0.0,0.0,90,0.00,,---,0.00,VWS V14.01,2013-01-17 02:24:00,
2013-01-16 20:29:00,30.4,27.8,30.04,South,172,0.0,0.0,90,0.00,,---,0.00,VWS V14.01,2013-01-17 02:29:00,
2013-01-16 20:34:00,30.4,27.8,30.04,South,172,0.0,0.0,90,0.00,,---,0.00,VWS V14.01,2013-01-17 02:34:00,
2013-01-16 20:39:00,30.3,27.7,30.04,South,172,0.0,0.0,90,0.00,,---,0.00,VWS V14.01,2013-01-17 02:39:00,
2013-01-16 20:44:00,30.3,27.7,30.04,South,172,0.0,0.0,90,0.00,,---,0.00,VWS V14.01,2013-01-17 02:44:00,
2013-01-16 20:49:00,30.2,27.6,30.04,South,172,0.0,0.0,90,0.00,,---,0.00,VWS V14.01,2013-01-17 02:49:00,
2013-01-16 20:54:00,30.1,27.8,30.04,South,172,0.0,0.0,91,0.00,,---,0.00,VWS V14.01,2013-01-17 02:54:00,
2013-01-16 20:59:00,30.1,27.8,30.04,South,172,0.0,0.0,91,0.00,,---,0.00,VWS V14.01,2013-01-17 02:59:00,
2013-01-16 21:04:00,30.1,27.8,30.04,South,172,0.0,0.0,91,0.00,,---,0.00,VWS V14.01,2013-01-17 03:04:00,
2013-01-16 21:09:00,30.1,27.8,30.04,South,172,0.0,0.0,91,0.00,,---,0.00,VWS V14.01,2013-01-17 03:09:00,
2013-01-16 21:14:00,30.0,27.7,30.04,South,172,0.0,0.0,91,0.00,,---,0.00,VWS V14.01,2013-01-17 03:14:00,
2013-01-16 21:19:00,30.0,27.7,30.04,South,172,0.0,0.0,91,0.00,,---,0.00,VWS V14.01,2013-01-17 03:19:00,
2013-01-16 21:24:00,29.9,27.6,30.04,South,172,0.0,0.0,91,0.00,,---,0.00,VWS V14.01,2013-01-17 03:24:00,
2013-01-16 21:29:00,29.9,27.6,30.04,South,172,0.0,0.0,91,0.00,,---,0.00,VWS V14.01,2013-01-17 03:29:00,
2013-01-16 21:34:00,29.9,27.6,30.03,South,172,0.0,0.0,91,0.00,,---,0.00,VWS V14.01,2013-01-17 03:34:00,
2013-01-16 21:39:00,29.8,27.5,30.03,South,172,0.0,0.0,91,0.00,,---,0.00,VWS V14.01,2013-01-17 03:39:00,
2013-01-16 21:44:00,29.7,27.4,30.03,South,172,0.0,0.0,91,0.00,,---,0.00,VWS V14.01,2013-01-17 03:44:00,
2013-01-16 21:49:00,29.7,27.4,30.03,South,172,0.0,0.0,91,0.00,,---,0.00,VWS V14.01,2013-01-17 03:49:00,
2013-01-16 21:54:00,29.8,27.5,30.03,South,172,0.0,0.0,91,0.00,,---,0.00,VWS V14.01,2013-01-17 03:54:00,
2013-01-16 21:59:00,29.8,27.5,30.03,South,172,0.0,0.0,91,0.00,,---,0.00,VWS V14.01,2013-01-17 03:59:00,
2013-01-16 22:04:00,29.8,27.5,30.04,South,172,0.0,0.0,91,0.00,,---,0.00,VWS V14.01,2013-01-17 04:04:00,
2013-01-16 22:09:00,29.8,27.5,30.04,South,172,0.0,0.0,91,0.00,,---,0.00,VWS V14.01,2013-01-17 04:09:00,
2013-01-16 22:14:00,29.8,27.5,30.04,South,172,0.0,0.0,91,0.00,,---,0.00,VWS V14.01,2013-01-17 04:14:00,
2013-01-16 22:19:00,29.8,27.5,30.03,South,172,0.0,0.0,91,0.00,,---,0.00,VWS V14.01,2013-01-17 04:19:00,
2013-01-16 22:24:00,29.7,27.4,30.03,South,172,0.0,0.0,91,0.00,,---,0.00,VWS V14.01,2013-01-17 04:24:00,
2013-01-16 22:29:00,29.7,27.4,30.03,South,172,0.0,0.0,91,0.00,,---,0.00,VWS V14.01,2013-01-17 04:29:00,
2013-01-16 22:34:00,29.6,27.3,30.03,South,172,0.0,0.0,91,0.00,,---,0.00,VWS V14.01,2013-01-17 04:34:00,
2013-01-16 22:39:00,29.6,27.3,30.03,South,172,0.0,0.0,91,0.00,,---,0.00,VWS V14.01,2013-01-17 04:39:00,
2013-01-16 22:44:00,29.6,27.6,30.03,South,172,0.0,0.0,92,0.00,,---,0.00,VWS V14.01,2013-01-17 04:44:00,
2013-01-16 22:49:00,29.6,27.6,30.03,South,172,0.0,0.0,92,0.00,,---,0.00,VWS V14.01,2013-01-17 04:49:00,
2013-01-16 22:54:00,29.5,27.5,30.03,South,172,0.0,0.0,92,0.00,,---,0.00,VWS V14.01,2013-01-17 04:54:00,
2013-01-16 22:59:00,29.5,27.5,30.03,South,172,0.0,0.0,92,0.00,,---,0.00,VWS V14.01,2013-01-17 04:59:00,
2013-01-16 23:00:00,29.5,27.5,30.03,South,172,0.0,0.0,92,0.00,,---,0.00,VWS V14.01,2013-01-17 05:00:00,
2013-01-16 23:01:00,29.4,27.4,30.03,South,172,0.0,0.0,92,0.00,,---,0.00,VWS V14.01,2013-01-17 05:01:00,
2013-01-16 23:03:00,29.4,27.4,30.03,South,172,0.0,0.0,92,0.00,,---,0.00,VWS V14.01,2013-01-17 05:03:00,
2013-01-16 23:08:00,29.4,27.4,30.03,South,172,0.0,0.0,92,0.00,,---,0.00,VWS V14.01,2013-01-17 05:08:00,
2013-01-16 23:13:00,29.4,27.4,30.03,South,172,0.0,0.0,92,0.00,,---,0.00,VWS V14.01,2013-01-17 05:13:00,
2013-01-16 23:18:00,29.4,27.4,30.03,South,172,0.0,0.0,92,0.00,,---,0.00,VWS V14.01,2013-01-17 05:18:00,
2013-01-16 23:23:00,29.3,27.3,30.03,South,172,0.0,0.0,92,0.00,,---,0.00,VWS V14.01,2013-01-17 05:23:00,
2013-01-16 23:28:00,29.4,27.4,30.03,South,172,0.0,0.0,92,0.00,,---,0.00,VWS V14.01,2013-01-17 05:28:00,
2013-01-16 23:33:00,29.4,27.4,30.03,South,172,0.0,0.0,92,0.00,,---,0.00,VWS V14.01,2013-01-17 05:33:00,
2013-01-16 23:38:00,29.4,27.4,30.03,South,172,0.0,0.0,92,0.00,,---,0.00,VWS V14.01,2013-01-17 05:38:00,
2013-01-16 23:43:00,29.3,27.3,30.03,South,172,0.0,0.0,92,0.00,,---,0.00,VWS V14.01,2013-01-17 05:43:00,
2013-01-16 23:48:00,29.3,27.3,30.04,South,172,0.0,0.0,92,0.00,,---,0.00,VWS V14.01,2013-01-17 05:48:00,
2013-01-16 23:53:00,29.3,27.3,30.04,South,172,0.0,0.0,92,0.00,,---,0.00,VWS V14.01,2013-01-17 05:53:00,
2013-01-16 23:58:00,29.4,27.4,30.04,South,172,0.0,1.0,92,0.00,,---,0.00,VWS V14.01,2013-01-17 05:58:00,